EW5586 Weather Reports


time (UTC)temp
C
wind
direction
speed
KPH
gust
KPH
rain 1hr
cm
rain 24hr
cm
rain mn
cm
humidity
%
barometer
mb
20260831022337 18 203 0.0 3.2 0.00 0.00 0.00 94 1018.5
20260831020835 18 236 0.0 0.0 0.00 0.00 0.00 94 1018.4
20260831020335 18 213 0.0 6.4 0.00 0.00 0.00 94 1018.4
20260831015833 18 228 0.0 6.4 0.00 0.00 0.00 94 1018.3
20260831015332 18 231 0.0 6.4 0.00 0.00 0.00 94 1018.4
20260831014831 19 218 0.0 9.7 0.00 0.00 0.00 94 1018.3
20260831013830 19 218 3.2 9.7 0.00 0.00 0.00 94 1018.2
20260831013329 19 0 1.6 9.7 0.00 0.00 0.00 94 1018.1
20260831011829 19 190 4.8 12.9 0.00 0.00 0.00 95 1018.0
20260831010830 19 209 3.2 9.7 0.00 0.00 0.00 94 1017.9
20260831010329 18 219 6.4 12.9 0.00 0.00 0.00 94 1017.9
20260831005829 18 221 4.8 12.9 0.00 0.00 0.00 94 1017.8
20260831005329 18 230 4.8 8.0 0.00 0.00 0.00 94 1017.9
20260831004831 18 205 3.2 8.0 0.00 0.00 0.00 94 1017.9
20260831004327 18 0 1.6 6.4 0.00 0.00 0.00 94 1017.9
20260831003828 18 221 1.6 6.4 0.00 0.00 0.00 94 1017.8
20260831003330 18 205 0.0 3.2 0.00 0.00 0.00 94 1017.7
20260831002827 18 223 0.0 4.8 0.00 0.00 0.00 94 1017.8
20260831002327 18 221 0.0 4.8 0.00 0.00 0.00 93 1017.8
20260831000815 19 217 0.0 4.8 0.00 0.00 0.00 93 1017.3
20260830235808 19 218 0.0 1.6 0.00 0.00 0.00 93 1017.5
20260830234804 19 222 0.0 0.0 0.00 0.00 0.00 93 1017.4
20260830234303 19 220 1.6 6.4 0.00 0.00 0.00 93 1017.3
20260830233301 19 232 0.0 4.8 0.00 0.00 0.00 92 1017.2
20260830231759 19 182 3.2 12.9 0.00 0.00 0.00 92 1017.0
20260830230757 20 196 4.8 11.3 0.00 0.00 0.00 91 1017.1
20260830225257 20 182 1.6 12.9 0.00 0.00 0.00 91 1017.0
20260830224757 20 182 1.6 12.9 0.00 0.00 0.00 91 1017.1
20260830224255 20 252 3.2 9.7 0.00 0.00 0.00 91 1017.1
20260830223756 20 220 4.8 11.3 0.00 0.00 0.00 90 1017.1
20260830223255 20 221 6.4 12.9 0.00 0.00 0.00 90 1017.1
20260830222756 20 202 6.4 12.9 0.00 0.00 0.00 90 1017.1
20260830222256 20 205 4.8 11.3 0.00 0.00 0.00 89 1017.0
20260830221756 20 228 3.2 12.9 0.00 0.00 0.00 89 1017.0
20260830221255 20 186 3.2 12.9 0.00 0.00 0.00 89 1017.0
20260830220756 20 161 4.8 11.3 0.00 0.00 0.00 89 1017.0
20260830220255 20 163 6.4 14.5 0.00 0.00 0.00 88 1017.0
20260830215755 20 188 6.4 14.5 0.00 0.00 0.00 88 1016.9
20260830215251 20 205 4.8 12.9 0.00 0.00 0.00 87 1016.9
20260830214751 20 197 4.8 12.9 0.00 0.00 0.00 87 1016.8
20260830214251 20 212 4.8 12.9 0.00 0.00 0.00 87 1016.8
20260830213251 20 205 3.2 14.5 0.00 0.00 0.00 86 1016.8
20260830212251 20 175 6.4 14.5 0.00 0.00 0.00 85 1016.9
20260830211751 20 241 4.8 14.5 0.00 0.00 0.00 85 1016.8
20260830211252 20 223 3.2 12.9 0.00 0.00 0.00 85 1016.9
20260830210747 20 201 1.6 8.0 0.00 0.00 0.00 85 1016.8
20260830210247 20 205 3.2 14.5 0.00 0.00 0.00 85 1016.9
20260830205747 20 207 4.8 14.5 0.00 0.00 0.00 85 1016.9
20260830205247 20 183 3.2 9.7 0.00 0.00 0.00 87 1016.9
20260830204246 20 167 4.8 12.9 0.00 0.00 0.00 88 1016.6
20260830203747 20 183 3.2 9.7 0.00 0.00 0.00 88 1016.7
20260830203247 20 149 1.6 8.0 0.00 0.00 0.00 89 1016.8
20260830202747 20 167 0.0 6.4 0.00 0.00 0.00 89 1016.8
20260830202247 20 215 1.6 8.0 0.00 0.00 0.00 89 1016.8
20260830201247 20 213 1.6 6.4 0.00 0.00 0.00 89 1016.7
20260830200747 20 189 1.6 6.4 0.00 0.00 0.00 89 1016.8
20260830200247 20 189 1.6 4.8 0.00 0.00 0.00 89 1016.8
20260830195746 20 206 1.6 6.4 0.00 0.00 0.00 89 1016.9
20260830195245 20 191 0.0 6.4 0.00 0.00 0.00 89 1017.0
20260830194741 20 220 0.0 6.4 0.00 0.00 0.00 89 1016.9
20260830194241 20 217 4.8 12.9 0.00 0.00 0.00 90 1016.8
20260830193741 19 196 6.4 12.9 0.00 0.00 0.00 90 1016.8
20260830193241 19 184 6.4 14.5 0.00 0.00 0.00 90 1016.9
20260830192740 19 186 6.4 14.5 0.00 0.00 0.00 91 1017.0
20260830192233 19 163 6.4 14.5 0.00 0.00 0.00 91 1017.0
20260830191729 19 227 6.4 12.9 0.00 0.00 0.00 92 1017.0
20260830191227 18 151 6.4 14.5 0.00 0.00 0.00 92 1017.1
20260830190727 18 217 6.4 14.5 0.00 0.00 0.00 92 1017.1
20260830190226 18 0 6.4 14.5 0.00 0.00 0.00 92 1017.2
20260830185725 18 167 8.0 14.5 0.00 0.00 0.00 92 1017.3
20260830185224 18 155 6.4 14.5 0.00 0.00 0.00 92 1017.2
20260830184721 18 226 3.2 12.9 0.00 0.00 0.00 93 1017.3
20260830183718 18 217 1.6 9.7 0.00 0.00 0.00 92 1017.4
20260830183219 18 184 0.0 1.6 0.00 0.00 0.00 93 1017.4
20260830182719 18 0 0.0 1.6 0.00 0.00 0.00 93 1017.5
20260830182218 18 194 1.6 8.0 0.00 0.00 0.00 92 1017.7
20260830181717 18 215 3.2 9.7 0.00 0.00 0.00 92 1017.7
20260830181216 18 227 1.6 9.7 0.00 0.00 0.00 92 1017.8
20260830180717 18 224 0.0 8.0 0.00 0.00 0.00 92 1017.7
20260830180217 18 223 0.0 0.0 0.00 0.00 0.00 92 1017.9
20260830175717 18 346 0.0 0.0 0.00 0.00 0.00 92 1018.0
20260830174702 18 355 1.6 6.4 0.00 0.00 0.00 91 1017.9
20260830173650 18 355 0.0 3.2 0.00 0.00 0.00 91 1018.0
20260830173144 19 355 0.0 4.8 0.00 0.00 0.00 90 1018.0
20260830172645 19 350 0.0 4.8 0.00 0.00 0.00 90 1018.1
20260830172142 19 355 0.0 6.4 0.00 0.00 0.00 89 1018.1
20260830171641 19 338 0.0 6.4 0.00 0.00 0.00 88 1018.1
20260830171141 19 309 0.0 3.2 0.00 0.00 0.00 88 1018.1
20260830170144 20 5 1.6 16.1 0.00 0.00 0.00 87 1017.9
20260830165138 20 205 1.6 8.0 0.00 0.00 0.00 87 1018.1
20260830164639 20 188 1.6 9.7 0.00 0.00 0.00 86 1018.0
20260830164138 20 236 1.6 9.7 0.00 0.00 0.00 86 1018.0
20260830163139 20 33 1.6 6.4 0.00 0.00 0.00 87 1017.9
20260830162638 20 219 1.6 6.4 0.00 0.00 0.00 86 1017.9
20260830162139 20 232 0.0 1.6 0.00 0.00 0.00 87 1017.8
20260830161639 20 168 0.0 1.6 0.00 0.00 0.00 88 1017.7
20260830160633 20 313 0.0 3.2 0.00 0.00 0.00 89 1017.8
20260830160130 20 254 0.0 3.2 0.00 0.00 0.00 89 1017.8
20260830155630 20 324 0.0 1.6 0.00 0.00 0.00 90 1017.9
20260830155124 20 276 0.0 1.6 0.00 0.00 0.00 89 1018.0
20260830154619 20 265 0.0 6.4 0.00 0.00 0.00 90 1018.1
20260830154112 20 186 3.2 9.7 0.00 0.00 0.00 90 1018.1
20260830153606 20 200 3.2 11.3 0.00 0.00 0.00 91 1018.0
20260830153100 20 236 1.6 11.3 0.00 0.00 0.00 92 1018.1
20260830152554 20 231 1.6 8.0 0.00 0.00 0.00 93 1018.1
20260830152048 20 259 3.2 14.5 0.00 0.00 0.00 93 1018.1
20260830151543 20 212 1.6 14.5 0.00 0.00 0.00 93 1018.1
20260830151036 20 212 0.0 11.3 0.00 0.00 0.00 94 1018.1
20260830150530 19 239 3.2 8.0 0.00 0.00 0.00 94 1018.2
20260830150024 19 231 4.8 12.9 0.00 0.00 0.00 93 1018.2
20260830145520 20 180 6.4 12.9 0.00 0.00 0.00 93 1018.2
20260830145012 20 156 4.8 11.3 0.00 0.00 0.00 94 1018.2
20260830144506 20 182 3.2 9.7 0.00 0.00 0.00 93 1018.1
20260830144000 19 178 0.0 6.4 0.00 0.00 0.00 94 1018.2
20260830143455 19 0 1.6 8.0 0.00 0.00 0.00 93 1018.3
20260830142948 19 161 4.8 12.9 0.00 0.00 0.00 93 1018.3
20260830142442 19 219 6.4 12.9 0.00 0.00 0.00 93 1018.3
20260830141936 19 196 3.2 12.9 0.00 0.00 0.00 93 1018.2
20260830141430 19 220 0.0 0.0 0.00 0.00 0.00 93 1018.2
20260830140924 19 338 0.0 0.0 0.00 0.00 0.00 93 1018.0
20260830140418 19 0 0.0 0.0 0.00 0.00 0.00 92 1017.8
20260830135912 19 347 0.0 1.6 0.00 0.00 0.00 92 1017.8
20260830135406 19 355 0.0 4.8 0.00 0.00 0.00 92 1017.8
20260830134900 19 12 0.0 4.8 0.00 0.00 0.00 92 1017.9
20260830134354 19 355 0.0 8.0 0.00 0.00 0.00 92 1017.8
20260830133848 19 355 1.6 11.3 0.00 0.00 0.00 92 1017.8
20260830133342 20 0 3.2 12.9 0.00 0.00 0.00 92 1017.8
20260830132836 20 198 3.2 14.5 0.00 0.00 0.00 92 1018.0
20260830131825 20 219 6.4 16.1 0.00 0.00 0.00 92 1018.0
20260830131318 20 0 6.4 16.1 0.00 0.00 0.00 92 1018.0
20260830130306 20 193 3.2 14.5 0.00 0.00 0.00 92 1018.0
20260830125800 20 168 1.6 8.0 0.00 0.00 0.00 92 1018.1
20260830125255 20 179 3.2 8.0 0.00 0.00 0.00 92 1017.9
20260830124748 20 225 1.6 8.0 0.00 0.00 0.00 92 1017.9
20260830124242 20 211 0.0 3.2 0.00 0.00 0.00 92 1017.9
20260830123736 20 210 0.0 8.0 0.00 0.00 0.00 92 1018.0
20260830123231 20 244 1.6 8.0 0.00 0.00 0.00 92 1017.9
20260830122724 20 219 1.6 9.7 0.00 0.00 0.00 92 1017.9
20260830122221 20 215 1.6 9.7 0.00 0.00 0.00 92 1017.8
20260830121720 19 175 3.2 12.9 0.00 0.00 0.00 92 1017.8
20260830121220 19 244 6.4 17.7 0.00 0.00 0.00 92 1017.9
20260830120720 19 234 6.4 17.7 0.00 0.00 0.00 92 1017.9
20260830120221 19 207 8.0 17.7 0.00 0.00 0.00 92 1017.9
20260830115721 19 222 8.0 16.1 0.00 0.00 0.00 91 1017.8
20260830115220 19 0 4.8 16.1 0.00 0.00 0.00 91 1017.9
20260830114719 19 0 4.8 17.7 0.00 0.00 0.00 91 1017.7
20260830114218 19 215 8.0 17.7 0.00 0.00 0.00 91 1017.8
20260830113719 19 0 9.7 17.7 0.00 0.00 0.00 91 1017.9
20260830113220 -17 0.0 0.0 0.00 0.00 0.00 1018.0
20260830112125 -17 0.0 0.0 0.00 0.00 0.00 1017.9
20260830110520 -17 0.0 0.0 0.00 0.00 0.00 1017.9
20260830105930 -17 0.0 0.0 0.00 0.00 0.00 1017.8
20260830105420 -17 0.0 0.0 0.00 0.00 0.00 1017.6
20260830104323 -17 0.0 0.0 0.00 0.00 0.00 1017.8
20260830103822 -17 0.0 0.0 0.00 0.00 0.00 1017.9
20260830103322 -17 0.0 0.0 0.00 0.00 0.00 1017.8
20260830102822 -17 0.0 0.0 0.00 0.00 0.00 1017.8
20260830102322 -17 0.0 0.0 0.00 0.00 0.00 1017.8
20260830101822 -17 0.0 0.0 0.00 0.00 0.00 1017.7
20260830101322 -17 0.0 0.0 0.00 0.00 0.00 1017.8
20260830100730 -17 0.0 0.0 0.00 0.00 0.00 1017.8
20260830095226 -17 0.0 0.0 0.00 0.00 0.00 1017.7
20260830094702 -17 0.0 0.0 0.00 0.00 0.00 1017.8
20260830094111 -17 0.0 0.0 0.00 0.00 0.00 1017.8
20260830093516 -17 0.0 0.0 0.00 0.00 0.00 1017.8
20260830092922 -17 0.0 0.0 0.00 0.00 0.00 1017.9
20260830092414 -17 0.0 0.0 0.00 0.00 0.00 1017.9
20260830091826 -17 0.0 0.0 0.00 0.00 0.00 1017.9
20260830091323 -17 0.0 0.0 0.00 0.00 0.00 1017.9
20260830090322 -17 0.0 0.0 0.00 0.00 0.00 1017.7
20260830084822 -17 0.0 0.0 0.00 0.00 0.00 1017.7
20260830084321 -17 0.0 0.0 0.00 0.00 0.00 1017.7
20260830082726 -17 0.0 0.0 0.00 0.00 0.00 1017.8
20260830082223 -17 0.0 0.0 0.00 0.00 0.00 1017.8
20260830081720 21 0.0 0.0 0.00 0.00 0.00 86 1017.9
20260830080612 21 182 9.7 14.5 0.00 0.00 0.00 86 1017.8
20260830080106 21 182 8.0 14.5 0.00 0.00 0.00 86 1017.8
20260830075606 21 178 9.7 14.5 0.00 0.00 0.00 86 1017.9
20260830075102 21 0 9.7 14.5 0.00 0.00 0.00 85 1017.8
20260830074600 21 157 9.7 17.7 0.00 0.00 0.00 85 1017.9
20260830074100 21 182 9.7 17.7 0.00 0.00 0.00 85 1017.9
20260830073558 21 168 8.0 17.7 0.00 0.00 0.00 85 1017.9
20260830073058 21 166 8.0 14.5 0.00 0.00 0.00 85 1017.9
20260830072555 21 186 8.0 14.5 0.00 0.00 0.00 84 1017.9
20260830072054 21 165 8.0 14.5 0.00 0.00 0.00 84 1017.8
20260830071050 21 167 8.0 12.9 0.00 0.00 0.00 83 1017.8
20260830070550 21 183 9.7 12.9 0.00 0.00 0.00 83 1017.8
20260830065550 21 207 9.7 16.1 0.00 0.00 0.00 84 1017.7
20260830065050 21 210 9.7 16.1 0.00 0.00 0.00 84 1017.8
20260830064550 21 173 6.4 14.5 0.00 0.00 0.00 85 1017.9
20260830064048 21 150 6.4 12.9 0.00 0.00 0.00 84 1017.8
20260830063548 21 173 8.0 14.5 0.00 0.00 0.00 83 1017.9
20260830063046 21 217 8.0 14.5 0.00 0.00 0.00 83 1017.9
20260830062545 21 203 8.0 14.5 0.00 0.00 0.00 83 1017.9
20260830062046 21 211 8.0 16.1 0.00 0.00 0.00 83 1017.9
20260830061546 21 192 8.0 16.1 0.00 0.00 0.00 82 1017.9
20260830061043 21 186 6.4 12.9 0.00 0.00 0.00 81 1018.0
20260830060545 21 156 6.4 12.9 0.00 0.00 0.00 79 1018.0
20260830060044 21 200 4.8 12.9 0.00 0.00 0.00 78 1018.0
20260830055542 21 220 4.8 9.7 0.00 0.00 0.00 78 1018.1
20260830055041 21 230 3.2 11.3 0.00 0.00 0.00 78 1018.1
20260830054541 21 215 3.2 11.3 0.00 0.00 0.00 78 1018.1
20260830054041 21 217 4.8 14.5 0.00 0.00 0.00 78 1018.1
20260830053535 21 176 6.4 14.5 0.00 0.00 0.00 78 1018.1
20260830053029 21 186 4.8 12.9 0.00 0.00 0.00 78 1018.1
20260830052523 21 198 4.8 14.5 0.00 0.00 0.00 78 1018.2
20260830052017 21 201 4.8 14.5 0.00 0.00 0.00 77 1018.2
20260830051512 21 229 4.8 11.3 0.00 0.00 0.00 77 1018.2
20260830051005 21 234 6.4 11.3 0.00 0.00 0.00 77 1018.2
20260830050500 21 223 4.8 12.9 0.00 0.00 0.00 77 1018.2
20260830045953 21 218 3.2 12.9 0.00 0.00 0.00 76 1018.1
20260830045448 21 184 3.2 9.7 0.00 0.00 0.00 76 1018.1
20260830044941 21 194 4.8 9.7 0.00 0.00 0.00 76 1018.2
20260830044435 21 205 6.4 11.3 0.00 0.00 0.00 75 1018.2
20260830043929 21 176 6.4 17.7 0.00 0.00 0.00 76 1018.1
20260830042917 21 167 6.4 14.5 0.00 0.00 0.00 76 1018.1
20260830042411 21 212 6.4 17.7 0.00 0.00 0.00 76 1018.1
20260830041905 21 213 6.4 17.7 0.00 0.00 0.00 77 1018.0
20260830040853 21 205 8.0 19.3 0.00 0.00 0.00 77 1018.0
20260830040347 21 217 8.0 16.1 0.00 0.00 0.00 76 1018.0
20260830035841 21 215 9.7 19.3 0.00 0.00 0.00 76 1018.0
20260830035335 21 216 11.3 20.9 0.00 0.00 0.00 75 1017.9
20260830033817 21 176 8.0 17.7 0.00 0.00 0.00 75 1017.9
20260830033311 21 177 8.0 17.7 0.00 0.00 0.00 75 1018.0
20260830032259 21 210 8.0 14.5 0.00 0.00 0.00 75 1017.9
20260830031753 21 182 9.7 24.1 0.00 0.00 0.00 74 1018.0
20260830031247 21 233 11.3 24.1 0.00 0.00 0.00 74 1017.9
20260830030741 21 200 9.7 22.5 0.00 0.00 0.00 75 1017.9
20260830030236 21 193 9.7 22.5 0.00 0.00 0.00 76 1018.0
20260830025729 21 198 14.5 24.1 0.00 0.00 0.00 77 1018.0
20260830025224 21 163 16.1 29.0 0.00 0.00 0.00 77 1018.0
20260830024717 21 218 16.1 29.0 0.00 0.00 0.00 77 1018.1
20260830024211 21 205 12.9 25.7 0.00 0.00 0.00 77 1018.2
20260830023705 21 161 11.3 19.3 0.00 0.00 0.00 80 1018.2
20260830023200 21 176 12.9 22.5 0.00 0.00 0.00 80 1018.1